www.pogodaiklimat.ru

Погода и климат >> Архив погоды >> Антарктида >> McMurdo


АРХИВ ПОГОДЫ в McMurdo

Время (UTC), дата Ветер
(напр.,м/с)
 
Видим.   Явления Облачность Т
(С)
Тd
(С)
f
(%)
Тe
(С)
Тes
(С)
Комфортность P
(гПа)
Po
(гПа)
Тmin
(С)
Tmax
(С)
R
(мм)
R24
(мм)
S
(см)
00 12.12 В 5 11 км слабый снег {метель} 9/4 900 м
[Sc Ac As]
-8.8 -12.0 78 -17 -16 очень
холодно
991.9 987.6 -9.4 -4.9
03 12.12 В 4 11 км {снег} 9/4 750 м
[Sc Ac As Cs]
-5.4 -10.7 66 -11 -10 прохладно 991.3 987.0
06 12.12 нст 3 11 км слабый снег 10/9 600 м
[Sc Ac As]
-3.1 -7.3 73 -8 -8 по сезону 991.1 986.9
09 12.12 З 3 11 км осадки на расстоянии {снег} 10/8 600 м
[Sc Ac As]
-3.8 -7.8 74 -9 -9 по сезону 990.2 986.0
12 12.12 СЗ 2 11 км осадки на расстоянии {снег} 10/5 600 м
[Sc Ac As]
-4.1 -8.5 71 -8 -8 по сезону 990.3 986.1 -8.9 -1.3 0.1
15 12.12 ЮВ 5 11 км осадки на расстоянии 9/4 600 м
[Sc Ac lent Ci sp]
-2.7 -11.8 50 -9 -9 по сезону 989.0 984.9
18 12.12 ЮВ 7 11 км осадки на расстоянии 9/5 300 м
[Sc Ac As Ci sp]
-3.5 -10.3 59 -11 -11 по сезону 989.4 985.3
21 12.12 ЮВ 11 11 км метель 9/6 300 м
[Sc Ac As]
-5.2 -8.3 79 -15 -15 холодно 989.8 985.6
00 13.12 ЮВ 6 6000 м слабый снег {метель} 10/10 360 м
[Frnb]
-5.5 -7.9 83 -13 -13 холодно 992.2 988.1 -5.7 -3.4
03 13.12 В 4 6000 м слабый снег 10/10 360 м
[Sc]
-6.3 -9.2 80 -13 -13 холодно 993.9 989.8
06 13.12 ЮВ 7 3200 м слабый снег туман 10/10 570 м
[Sc]
-6.6 -7.8 91 -15 -15 очень
холодно
995.4 991.2
09 13.12 ЮВ 3 11 км осадки на расстоянии {снег} 9/5 600 м
[Sc Ac As Cs]
-6.0 -8.2 84 -12 -11 прохладно 997.5 993.2
12 13.12 СВ 6 11 км осадки на расстоянии {снег} 8/5 750 м
[Sc Ac As Cs]
-6.5 -8.5 86 -15 -15 холодно 997.9 993.7 -6.9 -5.2 0.0
15 13.12 В 6 11 км осадки на расстоянии 8/5 300 м
[Sc Ac As Cs]
-6.8 -9.2 83 -15 -14 холодно 998.0 993.8
18 13.12 СВ 5 11 км осадки на расстоянии 8/6 600 м
[Sc Ac As Cs]
-6.4 -9.3 80 -13 -13 прохладно 997.6 993.3
21 13.12 СВ 8 11 км слабый снег 10/10 300 м
[Sc]
-6.1 -8.9 81 -15 -15 холодно 997.4 993.1
00 14.12 В 5 11 км осадки на расстоянии {снег} 10/10 1050 м
[Sc]
-4.3 -9.6 66 -11 -11 прохладно 997.1 993.0
03 14.12 ЮВ 5 11 км осадки на расстоянии 9/9 600 м
[Sc]
-4.3 -8.9 70 -11 -11 прохладно 997.3 993.0
06 14.12 нст 3 11 км 9/4 600 м
[Sc Ac As Ci sp]
-5.0 -7.8 81 -11 -9 прохладно 997.2 992.9
09 14.12 В 6 11 км 9/3 300 м
[Sc Ac As Ci sp]
-6.8 -9.0 84 -15 -14 холодно 997.2 993.0
12 14.12 В 6 11 км туман местами 6/3 300 м
[St Ac As Ci sp]
-7.3 -9.4 85 -15 -15 холодно 997.1 992.9 -7.5 -3.4 0.0
15 14.12 В 2 11 км туман на расстоянии 5/1 300 м
[Sc Ac As Cs]
-5.0 -10.0 68 -9 -8 по сезону 997.1 992.9
18 14.12 штиль 0 11 км туман на расстоянии 4/1 300 м
[Sc Ac As Cs]
-4.2 -10.2 63 -5 -2 по сезону 997.1 992.9
21 14.12 штиль 0 11 км туман на расстоянии 3/0 2000 м
[Ac trans Ci sp]
-4.1 -10.9 59 -5 +2 по сезону 996.8 992.7
00 15.12 нст 3 11 км туман на расстоянии 3/0 2000 м
[Ac trans Cs]
-1.4 -9.4 54 -5 +1 по сезону 997.1 993.0 -7.8 -1.4
03 15.12 СЗ 3 11 км 4/0 2000 м
[Ac trans Cs]
-1.9 -7.0 68 -6 -1 по сезону 997.0 992.9
06 15.12 С 4 11 км 8/3 900 м
[Sc Ac As Cs]
-2.1 -6.7 71 -7 -6 по сезону 997.2 993.0
09 15.12 СЗ 4 11 км 6/1 1500 м
[Sc Cs]
-2.4 -6.6 73 -8 -7 по сезону 997.4 993.2
12 15.12 С 4 11 км 3/0
[As op Cs]
-2.7 -6.1 77 -9 -8 по сезону 997.7 993.5 -2.9 -1.2
15 15.12 С 6 11 км 3/1 1500 м
[Sc As op Cs]
-3.1 -5.9 81 -10 -10 по сезону 997.9 993.7
18 15.12 С 5 11 км 4/1 360 м
[St Ac trans Cs]
-2.6 -5.2 82 -9 -8 по сезону 998.0 993.8
21 15.12 С 5 11 км 3/1 1500 м
[Sc Ac As Ci sp]
-1.8 -6.6 70 -8 -5 по сезону 998.1 994.0
00 16.12 СЗ 5 11 км 3/1 900 м
[Sc Ac As Ci sp]
-1.5 -5.1 76 -8 -4 по сезону 998.1 994.0 -13.1 -1.1
03 16.12 СЗ 4 11 км 4/1 1200 м
[Sc Ac As Ci sp]
-0.7 -4.7 74 -6 -3 по сезону 997.7 993.5
06 16.12 СЗ 4 11 км 8/3 900 м
[Sc Ac As Ci sp]
-1.2 -7.8 61 -6 -5 по сезону 996.5 992.4
09 16.12 СЗ 4 11 км 8/1 1500 м
[Sc Ac As Ci sp]
-2.2 -7.4 67 -8 -7 по сезону 995.5 991.4
12 16.12 СЗ 5 11 км 9/1 1500 м
[Sc Ac As Ci sp]
-2.9 -5.8 80 -9 -9 по сезону 994.2 990.1 -3.0 -0.7
15 16.12 СЗ 3 11 км 5/1 300 м
[St Ac trans Ci fib]
-2.9 -6.3 77 -8 -7 по сезону 992.7 988.6
18 16.12 СЗ 4 11 км 4/1 300 м
[St Ac trans Ci fib]
-3.0 -6.5 77 -9 -7 по сезону 991.3 987.3
21 16.12 нст 2 11 км 5/5 150 м
[Sc]
-3.9 -6.3 83 -7 -4 по сезону 990.3 986.2
00 17.12 З 3 11 км 4/4 300 м
[Sc]
-2.2 -6.0 75 -7 -3 по сезону 989.1 985.0 -5.9 -1.9
03 17.12 Ю 2 11 км 3/3 300 м
[Sc Ac trans]
-0.2 -4.9 71 -4 +1 по сезону 987.8 983.7
06 17.12 штиль 0 11 км 3/3 600 м
[Sc Ac trans]
-1.4 -5.2 75 -2 +2 по сезону 986.6 982.5
09 17.12 СЗ 2 11 км 4/3 450 м
[St Ac trans Ci fib]
-2.4 -5.5 79 -6 -5 по сезону 986.1 982.0
12 17.12 нст 2 11 км туман на расстоянии 1/1 900 м
[Sc Cs]
-2.9 -6.1 79 -7 -6 по сезону 985.4 981.3 -3.0 -0.2
15 17.12 штиль 0 11 км туман на расстоянии 1/1 600 м
[Sc Ac As]
-3.4 -6.4 80 -4 -3 по сезону 984.9 980.8
18 17.12 СЗ 3 11 км 8/8 450 м
[Sc Ac trans]
-3.0 -6.2 79 -8 -8 по сезону 984.5 980.4
21 17.12 СЗ 5 11 км 5/4 450 м
[Sc Ac trans]
-3.2 -6.0 81 -10 -8 по сезону 984.7 980.6
00 18.12 СЗ 4 11 км 8/8 450 м
[Sc]
-2.8 -7.1 72 -9 -8 по сезону 985.3 981.2 -4.1 -2.5
03 18.12 СЗ 3 11 км 5/4 450 м
[Sc Ac trans]
-2.4 -6.3 75 -7 -4 по сезону 985.6 981.5
06 18.12 СЗ 4 11 км 9/8 750 м
[Sc Ac trans]
-2.5 -6.6 73 -8 -8 по сезону 986.1 982.0
09 18.12 нст 2 11 км 9/6 600 м
[Sc Ac As Cs]
-2.0 -6.6 71 -5 -4 по сезону 987.1 983.0
12 18.12 В 2 11 км 9/6 600 м
[Sc Ac trans Cs]
-2.5 -7.0 71 -6 -5 по сезону 987.8 983.7 -2.8 -1.0
15 18.12 В 5 11 км слабый снег 9/4 450 м
[Sc Ac trans Cs]
-5.5 -8.8 78 -13 -13 прохладно 988.0 983.9
18 18.12 СВ 6 11 км слабый снег 10/9 240 м
[Sc Ac As]
-7.4 -9.5 85 -16 -16 очень
холодно
988.8 984.6
21 18.12 СВ 8 11 км слабый снег 9/8 300 м
[Sc Ac As]
-6.9 -9.3 83 -16 -16 очень
холодно
988.9 984.8

 

Местоположение метеостанции McMurdo (Антарктида): широта -77.85 долгота 166.66 высота над уровнем моря 24 м.

В архиве по умолчанию представлена погода в McMurdo за последнюю неделю. Архивные данные за месяц целиком и за предыдущие месяцы, начиная с января 2011 года, Вы можете получить, выбрав интересующий диапазон дат из раскрывающегося списка и нажав кнопку "Ввод!".

Внимание! Время в таблицах - всемирное. Для получения местного времени необходимо прибавить поправку, которая в McMurdo равна 0 ч.

Смотрите также архив погоды в соседних городах и на ближайших метеорологических станциях:

Погода в Pegasus North (Антарктида) (12 км)
Погода в Linda (Антарктида) (78 км)
Погода в Minna Bluff (Антарктида) (78 км)
Погода в Marble Point (Антарктида) (84 км)
Погода в Ferrell (Антарктида) (97 км)
Погода в Cape Ross (Антарктида) (156 км)
Погода в Marilyn (Антарктида) (236 км)
Погода в Schwerdtfeger (Антарктида) (236 км)
Погода в Manuela (Антарктида) (333 км)
Погода в Baia Terra Nova (Антарктида) (357 км)

Пояснения к столбцам:

Ветер - указаны скорость ветра в м/с - средняя за 10 мин, порывы в срок и между сроками (в фигурных скобках) и направление, откуда дует ветер: С - северный, СВ - северо-восточный, В - восточный, ЮВ - юго-восточный, Ю - южный, ЮЗ - юго-западный, З - западный, СЗ - северо-западный.
Видимость - горизонтальная дальность видимости в метрах или километрах. При видимости от 1 до 10 км при отсутствии осадков обычно наблюдается дымка, при ухудшении видимости до 1 км и менее - туман. В сухую погоду видимость может ухудшаться дымом, пылью или мглою.
Явления - указаны атмосферные явления, наблюдавшиеся в срок или в последний час перед сроком; фигурными скобками обозначены явления, наблюдавшиеся между сроками (за 1-3 часа до срока); квадратными скобками обозначены град или гололедные отложения с указанием их диаметра в мм.
Облачность - указаны через наклонную черту общая и нижняя облачность в баллах и высота нижней границы облаков в метрах; квадратными скобками обозначены формы облаков: Ci - перистые, Cs - перисто-слоистые, Cc - перисто-кучевые, Ac - высококучевые, As - высокослоистые, Sc - слоисто-кучевые, Ns - слоисто-дождевые, Cu - кучевые, Cb - кучево-дождевые. Подробнее классификацию облаков см. в Атласе облаков (PDF).
T - Температура воздуха - температура, измеренная на высоте 2 м над землей.
Td - Температура точки росы - температура, при понижении до которой содержащийся в воздухе водяной пар достигнет насыщения.
f - Относительная влажность воздуха - влажноcть воздуха, измеренная на высоте 2 м над землей.
Te - Эффективная температура - температура, которую ощущает одетый по сезону человек в тени. Характеристика душности погоды. При расчете учитывается влияние влажности воздуха и скорости ветра на теплоощущения человека.
Tes - Эффективная температура на солнце - температура, которую ощущает человек, с поправкой на солнечный нагрев. Характеристика знойности погоды. Зависит от высоты солнца над горизонтом, облачности и скорости ветра. Ночью, в пасмурную погоду, а также при ветре 12 м/с и более поправка равна нулю.
P - Атмосферное давление - приведенное к уровню моря атмосферное давление.
Po - Атмосферное давление - измеренное на уровне метеостанции атмосферное давление.
Tmin - Минимальная температура - минимум температуры воздуха на высоте 2 м над землей.
Tmax - Максимальная температура - максимум температуры воздуха на высоте 2 м над землей.
R - Количество осадков - Количество выпавших осадков за период времени, мм. При наведении курсора мыши на число - период времени, за который выпало указанное количество осадков.
R24 - Количество осадков - Количество выпавших осадков за 24 часа, мм.
S - Снежный покров - Высота снежного покрова, см. При наведении курсора мыши на число - состояние снежного покрова и степень покрытия местности в баллах.